Location: Unspecified
(0.0000°N, 0.0000°E)
Time: 05:26:05
(UTC+00:00)

N. Korean satellite - Pass Details

Date: 07 August 2020
Orbit: 453 x 506 km, 97.2° (Epoch: 13 August)

Event Time Altitude Azimuth Distance (km) Brightness Sun altitude
Rises 04:55:16 0° 21° (NNE) 2,525 10.8 -16.9°
Reaches altitude 10° 04:57:22 10° 28° (NNE) 1,658 9.9 -16.4°
Maximum altitude 05:00:47 44° 101° (E) 685 7.7 -15.6°
Drops below altitude 10° 05:04:17 10° 174° (S) 1,694 9.2 -14.7°
Sets 05:06:26 0° 181° (S) 2,586 10.1 -14.2°
